Stündliche Wetter Wartkowo

Heute, 28 Oktober, Mittwoch

Zeit Temperatur Niederschläge Wind Luftdruck Luftfeuchtigkeit
00:00 +7°C° 0 mm 6 m/S 752 mmHg 78%
01:00 +7°C° 0 mm 6 m/S 752 mmHg 76%
02:00 +7°C° 0 mm 6 m/S 751 mmHg 76%
03:00 +7°C° 0 mm 6 m/S 751 mmHg 76%
04:00 +7°C° 0 mm 6 m/S 751 mmHg 75%
05:00 +6°C° 0 mm 7 m/S 751 mmHg 75%
06:00 +6°C° 0 mm 7 m/S 751 mmHg 74%
07:00 +6°C° 0 mm 8 m/S 751 mmHg 72%
08:00 +7°C° 0 mm 8 m/S 751 mmHg 72%
09:00 +7°C° 0 mm 8 m/S 751 mmHg 72%
10:00 +7°C° 0 mm 8 m/S 751 mmHg 71%
11:00 +9°C° 0 mm 7 m/S 751 mmHg 74%
12:00 +9°C° 0 mm 7 m/S 751 mmHg 76%
13:00 +9°C° 0 mm 6 m/S 751 mmHg 78%
14:00 +9°C° 0 mm 6 m/S 751 mmHg 80%
15:00 +9°C° 0 mm 6 m/S 752 mmHg 82%
16:00 +9°C° 0 mm 5 m/S 752 mmHg 84%
17:00 +9°C° 0 mm 5 m/S 752 mmHg 86%
18:00 +8°C° 0 mm 5 m/S 752 mmHg 87%
19:00 +8°C° 0 mm 5 m/S 752 mmHg 89%
20:00 +8°C° 0 mm 5 m/S 752 mmHg 90%
21:00 +8°C° 0 mm 5 m/S 752 mmHg 91%
22:00 +8°C° 0 mm 5 m/S 752 mmHg 91%
23:00 +8°C° 0 mm 5 m/S 752 mmHg 92%

Morgen, 29 Oktober, Donnerstag

Zeit Temperatur Niederschläge Wind Luftdruck Luftfeuchtigkeit
00:00 +8°C° 0 mm 5 m/S 752 mmHg 93%
01:00 +7°C° 0 mm 5 m/S 752 mmHg 94%
02:00 +7°C° 0 mm 5 m/S 752 mmHg 93%
03:00 +7°C° 0 mm 5 m/S 751 mmHg 93%
04:00 +7°C° 0 mm 5 m/S 751 mmHg 92%
05:00 +7°C° 0 mm 6 m/S 751 mmHg 89%
06:00 +7°C° 0 mm 6 m/S 751 mmHg 87%
07:00 +8°C° 0 mm 6 m/S 750 mmHg 85%
08:00 +8°C° 0.2 mm 6 m/S 750 mmHg 85%
09:00 +9°C° 0.2 mm 6 m/S 750 mmHg 85%
10:00 +9°C° 0.2 mm 6 m/S 750 mmHg 85%
11:00 +10°C° 0.2 mm 6 m/S 751 mmHg 80%
12:00 +10°C° 0.2 mm 7 m/S 751 mmHg 75%
13:00 +11°C° 0.2 mm 7 m/S 751 mmHg 71%
14:00 +10°C° 0.2 mm 7 m/S 751 mmHg 74%
15:00 +9°C° 0.2 mm 7 m/S 752 mmHg 77%
16:00 +9°C° 0.2 mm 7 m/S 752 mmHg 79%
17:00 +8°C° 0.2 mm 7 m/S 753 mmHg 80%
18:00 +8°C° 0.2 mm 7 m/S 753 mmHg 81%
19:00 +8°C° 0.2 mm 7 m/S 754 mmHg 82%
20:00 +8°C° 0.1 mm 7 m/S 754 mmHg 84%
21:00 +6°C° 0.1 mm 7 m/S 755 mmHg 85%
22:00 +6°C° 0.1 mm 7 m/S 755 mmHg 87%
23:00 +7°C° 0.1 mm 6 m/S 755 mmHg 88%

übermorgen, 30 Oktober, Freitag

Zeit Temperatur Niederschläge Wind Luftdruck Luftfeuchtigkeit
00:00 +7°C° 0.1 mm 6 m/S 756 mmHg 89%
01:00 +7°C° 0.1 mm 6 m/S 756 mmHg 90%
02:00 +7°C° 0 mm 6 m/S 756 mmHg 91%
03:00 +6°C° 0 mm 5 m/S 756 mmHg 91%
04:00 +6°C° 0 mm 5 m/S 757 mmHg 92%
05:00 +6°C° 0 mm 5 m/S 756 mmHg 91%
06:00 +5°C° 0 mm 4 m/S 756 mmHg 91%
07:00 +5°C° 0 mm 4 m/S 756 mmHg 90%
08:00 +5°C° 0.3 mm 4 m/S 756 mmHg 90%
09:00 +6°C° 0.3 mm 4 m/S 756 mmHg 90%
10:00 +6°C° 0.3 mm 4 m/S 755 mmHg 89%
11:00 +7°C° 1 mm 4 m/S 755 mmHg 91%
12:00 +7°C° 1 mm 4 m/S 755 mmHg 92%
13:00 +7°C° 1 mm 4 m/S 754 mmHg 93%
14:00 +7°C° 1.1 mm 4 m/S 754 mmHg 94%
15:00 +8°C° 1.1 mm 3 m/S 754 mmHg 95%
16:00 +9°C° 1.1 mm 2 m/S 754 mmHg 96%
17:00 +9°C° 0.5 mm 2 m/S 755 mmHg 96%
18:00 +9°C° 0.5 mm 2 m/S 755 mmHg 96%
19:00 +9°C° 0.5 mm 2 m/S 755 mmHg 96%
20:00 +8°C° 0 mm 2 m/S 756 mmHg 96%
21:00 +8°C° 0 mm 2 m/S 757 mmHg 96%
22:00 +8°C° 0 mm 2 m/S 757 mmHg 95%
23:00 +7°C° 0 mm 2 m/S 758 mmHg 95%

31 Oktober, Samstag

Zeit Temperatur Niederschläge Wind Luftdruck Luftfeuchtigkeit
00:00 +7°C° 0 mm 2 m/S 758 mmHg 95%
01:00 +7°C° 0 mm 2 m/S 759 mmHg 95%
02:00 +7°C° 0 mm 2 m/S 759 mmHg 94%
03:00 +7°C° 0 mm 2 m/S 760 mmHg 94%
04:00 +7°C° 0 mm 2 m/S 760 mmHg 93%
05:00 +7°C° 0 mm 3 m/S 760 mmHg 93%
06:00 +7°C° 0 mm 3 m/S 761 mmHg 93%
07:00 +7°C° 0 mm 3 m/S 761 mmHg 93%
08:00 +8°C° 0 mm 3 m/S 761 mmHg 91%
09:00 +8°C° 0 mm 4 m/S 762 mmHg 88%
10:00 +8°C° 0 mm 4 m/S 762 mmHg 86%
11:00 +10°C° 0 mm 4 m/S 762 mmHg 85%
12:00 +10°C° 0 mm 4 m/S 762 mmHg 84%
13:00 +11°C° 0 mm 4 m/S 762 mmHg 83%
14:00 +11°C° 0 mm 4 m/S 762 mmHg 85%
15:00 +10°C° 0 mm 4 m/S 762 mmHg 87%
16:00 +10°C° 0 mm 4 m/S 762 mmHg 88%
17:00 +10°C° 0 mm 4 m/S 762 mmHg 89%
18:00 +10°C° 0 mm 4 m/S 762 mmHg 90%
19:00 +10°C° 0 mm 4 m/S 762 mmHg 90%
20:00 +10°C° 0 mm 4 m/S 762 mmHg 90%
21:00 +10°C° 0 mm 4 m/S 762 mmHg 91%
22:00 +9°C° 0 mm 5 m/S 762 mmHg 91%
23:00 +9°C° 0 mm 5 m/S 762 mmHg 89%

1 November, Sonntag

Zeit Temperatur Niederschläge Wind Luftdruck Luftfeuchtigkeit
00:00 +9°C° 0 mm 5 m/S 761 mmHg 88%
01:00 +9°C° 0 mm 5 m/S 761 mmHg 86%
02:00 +8°C° 0 mm 5 m/S 761 mmHg 84%
03:00 +8°C° 0 mm 6 m/S 761 mmHg 82%
04:00 +8°C° 0 mm 6 m/S 760 mmHg 80%
05:00 +8°C° 0 mm 7 m/S 760 mmHg 77%
06:00 +8°C° 0 mm 7 m/S 760 mmHg 75%
07:00 +6°C° 0 mm 7 m/S 759 mmHg 72%
08:00 +7°C° 0 mm 8 m/S 759 mmHg 69%
09:00 +9°C° 0 mm 8 m/S 759 mmHg 67%
10:00 +10°C° 0 mm 8 m/S 759 mmHg 64%
11:00 +11°C° 0 mm 8 m/S 758 mmHg 64%
12:00 +11°C° 0 mm 8 m/S 758 mmHg 64%
13:00 +12°C° 0 mm 8 m/S 758 mmHg 63%
14:00 +11°C° 0 mm 8 m/S 757 mmHg 64%
15:00 +11°C° 0 mm 8 m/S 757 mmHg 65%
16:00 +10°C° 0 mm 8 m/S 756 mmHg 66%
17:00 +10°C° 0 mm 8 m/S 756 mmHg 68%
18:00 +10°C° 0 mm 8 m/S 756 mmHg 69%
19:00 +10°C° 0 mm 8 m/S 756 mmHg 70%
20:00 +10°C° 0 mm 8 m/S 756 mmHg 73%
21:00 +10°C° 0 mm 7 m/S 756 mmHg 75%
22:00 +10°C° 0 mm 7 m/S 756 mmHg 77%
23:00 +10°C° 0.1 mm 6 m/S 756 mmHg 78%

2 November, Montag

Zeit Temperatur Niederschläge Wind Luftdruck Luftfeuchtigkeit
00:00 +10°C° 0.1 mm 6 m/S 756 mmHg 80%
01:00 +10°C° 0.1 mm 6 m/S 756 mmHg 81%
02:00 +10°C° 0.1 mm 6 m/S 756 mmHg 82%
03:00 +10°C° 0.1 mm 6 m/S 755 mmHg 82%
04:00 +10°C° 0.1 mm 5 m/S 755 mmHg 82%
05:00 +10°C° 0 mm 6 m/S 755 mmHg 83%
06:00 +10°C° 0 mm 6 m/S 755 mmHg 84%
07:00 +10°C° 0 mm 6 m/S 755 mmHg 85%
08:00 +10°C° 0 mm 6 m/S 755 mmHg 84%
09:00 +11°C° 0 mm 6 m/S 755 mmHg 82%
10:00 +11°C° 0 mm 6 m/S 755 mmHg 80%
11:00 +13°C° 0.1 mm 6 m/S 755 mmHg 80%
12:00 +13°C° 0.1 mm 6 m/S 755 mmHg 80%
13:00 +13°C° 0.1 mm 6 m/S 756 mmHg 80%
14:00 +13°C° 0.1 mm 6 m/S 756 mmHg 81%
15:00 +13°C° 0.1 mm 6 m/S 755 mmHg 82%
16:00 +13°C° 0.1 mm 6 m/S 755 mmHg 83%
17:00 +13°C° 0 mm 6 m/S 756 mmHg 84%
18:00 +13°C° 0 mm 6 m/S 756 mmHg 85%
19:00 +13°C° 0 mm 6 m/S 756 mmHg 85%
20:00 +13°C° 0 mm 6 m/S 756 mmHg 86%
21:00 +13°C° 0 mm 6 m/S 756 mmHg 87%
22:00 +13°C° 0 mm 6 m/S 756 mmHg 87%
23:00 +11°C° 0 mm 6 m/S 756 mmHg 88%
Mehr zeigen

Wir brauchen deine Erlaubnis

Meteoprog und unser Service Anbieter werden persönliche Daten aufbewahren, so wie Cookies, Geräte Bezeichnung oder ähnliche Technologien von deinem Gerät und Prozess, so wie Persönliche Daten Inhalte und Werbungen, genauso wie social Media und den Verkehr zu analysieren.

  • Aufbewahrung und/oder Zugang zu deiner Geräte Informationen.

    Cookies, Geräte Bezeichnung oder andere Informationen, können aufbewahrt oder Zugang zu deinem Gerät erhalten, für den Grund, der oben angegeben wird.

  • Personalisierte Werbung und Inhalte, Messungen, Einblick in das Publikum und Produkt Entwicklung.

    Werbungen und Inhalte können personalisiert werden, basierend auf ein Profil. Mehr Daten können besser personalisierte Werbungen und Inhalte hinzufügen. Werbung und Inhalte können gezeigt und gemessen werden. Einblicke über das Publikum, welche die Werbung gesehen haben und den Inhalt, können abgeleitet werden. So wie Daten können genutzt werden, um es zu verbessern oder die Benutzer Erfahrung zu verbessern das System und die Software.

Wenn du “Ich stimme zu” klickst, erlaubst du uns, die Cookies zu benutzen die Geräte Bezeichnung, den Web oder ähnliche Technologien zu benutzen. Deine Settings, können in deinem Gerät bei deinem Browser geändert werden.

Für den bestimmten Zweck, berechtigten Interessen beruhen darauf, mehr als auf den Inhalt. Du kannst mehr darüber in unseren Privaten und Cookie Politik lesen.